Wetterdaten: aktuell Dienstag, 01.09.2026 06:17
Datum Zeit Temp. A. Feuchte A. Luftdruck Regen Wind Richtung Richtung Sonnenschein Regendauer Taupunkt Windchill
01.09.2026 06:17 12,4 °C 94 % 1020,4 hPa 0,0 mm 0,0 km/h (0 Bft) N-NO 25 ° 0 min 0 min 11,5 °C 12,4 °C
01.09.2026 06:12 12,5 °C 94 % 1020,4 hPa 0,0 mm 0,0 km/h (0 Bft) O-NO 65 ° 0 min 0 min 11,6 °C 12,5 °C
01.09.2026 06:07 12,7 °C 94 % 1020,3 hPa 0,0 mm 0,0 km/h (0 Bft) W-NW 290 ° 0 min 0 min 11,8 °C 12,7 °C
01.09.2026 06:02 12,7 °C 94 % 1020,3 hPa 0,0 mm 0,5 km/h (0 Bft) W-NW 285 ° 0 min 0 min 11,8 °C 12,7 °C
01.09.2026 05:57 12,7 °C 94 % 1020,3 hPa 0,0 mm 0,4 km/h (0 Bft) W-NW 285 ° 0 min 0 min 11,8 °C 12,7 °C
01.09.2026 05:52 12,5 °C 94 % 1020,4 hPa 0,0 mm 0,0 km/h (0 Bft) W-NW 295 ° 0 min 0 min 11,6 °C 12,5 °C
01.09.2026 05:47 12,6 °C 94 % 1020,3 hPa 0,0 mm 0,0 km/h (0 Bft) SO 145 ° 0 min 0 min 11,7 °C 12,6 °C
01.09.2026 05:42 12,6 °C 94 % 1020,3 hPa 0,0 mm 0,0 km/h (0 Bft) SO 130 ° 0 min 0 min 11,7 °C 12,6 °C
01.09.2026 05:37 12,6 °C 92 % 1020,3 hPa 0,0 mm 0,0 km/h (0 Bft) SO 130 ° 0 min 0 min 11,3 °C 12,6 °C
01.09.2026 05:32 12,7 °C 92 % 1020,3 hPa 0,0 mm 0,0 km/h (0 Bft) O 85 ° 0 min 0 min 11,4 °C 12,7 °C
01.09.2026 05:27 12,8 °C 92 % 1020,3 hPa 0,0 mm 0,0 km/h (0 Bft) O 90 ° 0 min 0 min 11,5 °C 12,8 °C
01.09.2026 05:22 13,0 °C 92 % 1020,3 hPa 0,0 mm 0,0 km/h (0 Bft) S 180 ° 0 min 0 min 11,7 °C 13,0 °C
01.09.2026 05:17 13,0 °C 92 % 1020,3 hPa 0,0 mm 0,0 km/h (0 Bft) N-NW 340 ° 0 min 0 min 11,7 °C 13,0 °C
01.09.2026 05:12 13,0 °C 92 % 1020,3 hPa 0,0 mm 0,0 km/h (0 Bft) N-NW 335 ° 0 min 0 min 11,7 °C 13,0 °C
01.09.2026 05:07 13,0 °C 92 % 1020,3 hPa 0,0 mm 0,0 km/h (0 Bft) N-NW 335 ° 0 min 0 min 11,7 °C 13,0 °C
01.09.2026 05:02 13,0 °C 92 % 1020,3 hPa 0,0 mm 0,0 km/h (0 Bft) W-SW 240 ° 0 min 0 min 11,7 °C 13,0 °C
01.09.2026 04:57 13,1 °C 92 % 1020,2 hPa 0,0 mm 0,0 km/h (0 Bft) W-SW 245 ° 0 min 0 min 11,8 °C 13,1 °C
01.09.2026 04:52 13,2 °C 92 % 1020,2 hPa 0,0 mm 0,0 km/h (0 Bft) W-SW 245 ° 0 min 0 min 11,9 °C 13,2 °C
01.09.2026 04:47 13,2 °C 92 % 1020,2 hPa 0,0 mm 1,4 km/h (1 Bft) W-SW 240 ° 0 min 0 min 11,9 °C 13,2 °C
01.09.2026 04:42 13,1 °C 92 % 1020,2 hPa 0,0 mm 0,0 km/h (0 Bft) W-SW 240 ° 0 min 0 min 11,8 °C 13,1 °C
01.09.2026 04:37 13,0 °C 92 % 1020,3 hPa 0,0 mm 0,0 km/h (0 Bft) W-NW 300 ° 0 min 0 min 11,7 °C 13,0 °C
01.09.2026 04:32 13,0 °C 92 % 1020,3 hPa 0,0 mm 0,0 km/h (0 Bft) W-NW 285 ° 0 min 0 min 11,7 °C 13,0 °C
01.09.2026 04:27 13,0 °C 92 % 1020,3 hPa 0,0 mm 0,0 km/h (0 Bft) W-SW 245 ° 0 min 0 min 11,7 °C 13,0 °C
01.09.2026 04:22 13,0 °C 92 % 1020,3 hPa 0,0 mm 0,0 km/h (0 Bft) NW 315 ° 0 min 0 min 11,7 °C 13,0 °C
01.09.2026 04:17 13,1 °C 92 % 1020,2 hPa 0,0 mm 0,0 km/h (0 Bft) NW 315 ° 0 min 0 min 11,8 °C 13,1 °C
01.09.2026 04:12 13,2 °C 92 % 1020,2 hPa 0,0 mm 0,0 km/h (0 Bft) NW 315 ° 0 min 0 min 11,9 °C 13,2 °C
01.09.2026 04:07 13,1 °C 92 % 1020,2 hPa 0,0 mm 0,0 km/h (0 Bft) W-NW 295 ° 0 min 0 min 11,8 °C 13,1 °C
01.09.2026 04:02 13,1 °C 92 % 1019,2 hPa 0,0 mm 0,0 km/h (0 Bft) W-SW 245 ° 0 min 0 min 11,8 °C 13,1 °C
01.09.2026 03:57 13,2 °C 92 % 1019,2 hPa 0,0 mm 0,0 km/h (0 Bft) W-SW 245 ° 0 min 0 min 11,9 °C 13,2 °C
01.09.2026 03:52 13,3 °C 92 % 1019,2 hPa 0,0 mm 0,0 km/h (0 Bft) W-SW 240 ° 0 min 0 min 12,0 °C 13,3 °C
01.09.2026 03:47 13,4 °C 92 % 1019,1 hPa 0,0 mm 0,0 km/h (0 Bft) S-SO 150 ° 0 min 0 min 12,1 °C 13,4 °C
01.09.2026 03:42 13,4 °C 92 % 1019,1 hPa 0,0 mm 0,0 km/h (0 Bft) W 275 ° 0 min 0 min 12,1 °C 13,4 °C
01.09.2026 03:37 13,4 °C 92 % 1019,1 hPa 0,0 mm 0,0 km/h (0 Bft) SW 235 ° 0 min 0 min 12,1 °C 13,4 °C
01.09.2026 03:32 13,5 °C 91 % 1019,1 hPa 0,0 mm 1,8 km/h (1 Bft) S 185 ° 0 min 0 min 12,1 °C 13,5 °C
01.09.2026 03:27 13,6 °C 91 % 1019,1 hPa 0,0 mm 0,0 km/h (0 Bft) S 180 ° 0 min 0 min 12,2 °C 13,6 °C
01.09.2026 03:22 13,8 °C 90 % 1019,1 hPa 0,0 mm 0,0 km/h (0 Bft) S 185 ° 0 min 0 min 12,2 °C 13,8 °C
01.09.2026 03:17 13,7 °C 90 % 1020,1 hPa 0,0 mm 0,0 km/h (0 Bft) W 260 ° 0 min 0 min 12,1 °C 13,7 °C
01.09.2026 03:12 13,8 °C 90 % 1020,1 hPa 0,0 mm 0,0 km/h (0 Bft) W-NW 300 ° 0 min 0 min 12,2 °C 13,8 °C
01.09.2026 03:07 13,8 °C 91 % 1020,1 hPa 0,0 mm 0,0 km/h (0 Bft) W 280 ° 0 min 0 min 12,4 °C 13,8 °C
01.09.2026 03:02 13,8 °C 90 % 1019,1 hPa 0,0 mm 0,0 km/h (0 Bft) W 265 ° 0 min 0 min 12,2 °C 13,8 °C
01.09.2026 02:57 13,9 °C 89 % 1019,0 hPa 0,0 mm 0,0 km/h (0 Bft) SO 135 ° 0 min 0 min 12,1 °C 13,9 °C
01.09.2026 02:52 14,1 °C 89 % 1019,0 hPa 0,0 mm 0,7 km/h (0 Bft) S-SO 165 ° 0 min 0 min 12,3 °C 14,1 °C
01.09.2026 02:47 14,5 °C 87 % 1020,0 hPa 0,0 mm 0,0 km/h (0 Bft) S 180 ° 0 min 0 min 12,4 °C 14,5 °C
01.09.2026 02:42 14,6 °C 88 % 1020,0 hPa 0,0 mm 0,4 km/h (0 Bft) W 275 ° 0 min 0 min 12,6 °C 14,6 °C
01.09.2026 02:37 14,5 °C 89 % 1020,0 hPa 0,0 mm 0,0 km/h (0 Bft) SO 125 ° 0 min 0 min 12,7 °C 14,5 °C
01.09.2026 02:32 14,6 °C 89 % 1018,9 hPa 0,0 mm 0,0 km/h (0 Bft) SO 125 ° 0 min 0 min 12,8 °C 14,6 °C
01.09.2026 02:27 14,9 °C 88 % 1018,8 hPa 0,0 mm 2,5 km/h (1 Bft) W 275 ° 0 min 0 min 12,9 °C 14,9 °C
01.09.2026 02:22 14,8 °C 89 % 1018,9 hPa 0,0 mm 2,2 km/h (1 Bft) S-SO 150 ° 0 min 0 min 13,0 °C 14,8 °C
01.09.2026 02:17 14,7 °C 89 % 1019,9 hPa 0,0 mm 4,2 km/h (1 Bft) W-SW 255 ° 0 min 0 min 12,9 °C 14,7 °C
_ Min-Zeit 06:17 17:17 15:52 - 07:37 - - - - 05:37 06:17
Minimum _ 12,4 °C 52 % 1012,6 hPa - 0,0 km/h (0 Bft) - - - - 11,3 °C 12,4 °C
_ Max-Zeit 15:47 08:12 06:17 07:02 14:17 - - 10:52 07:02 12:22 15:47
Maximum _ 25,8 °C 94 % 1020,4 hPa 0,0 mm 45,7 km/h
O-SO (6 Bft)
- - 7 min 0 min 18,1 °C 25,8 °C
Durchschnitt _ 18,7 °C 79 % 1015,9 hPa #0,0 mm 7,2 km/h (2 Bft) SO - #0 min. #0 min. 14,7 °C 18,7 °C